Theta_e
306 305 304 304 305 304 304 304 304 304 304 304 304 304 305 304 305 305 304 306 308 306 307 308 308 308 308 305 304 304 307 307 306 307 306 302 305 301 310 319 319 320 322 323 323
304 304 305 305 304 304 304 303 304 304 305 305 305 304 305 304 304 304 305 306 306 307 308 307 306 306 305 305 304 305 306 306 303 303 304 303 302 301 305 308 317 318 318 319 315
305 305 305 305 305 304 304 304 305 305 305 306 306 305 305 307 302 303 306 307 307 308 308 307 306 305 305 304 303 304 305 304 304 305 303 303 302 299 303 307 306 312 317 313 312
305 305 305 305 305 305 305 305 306 305 305 304 305 305 305 304 303 305 307 307 307 307 307 306 303 304 304 304 303 304 303 304 304 302 303 304 301 298 298 301 304 316 313 307 305
304 304 304 305 306 306 306 306 306 307 305 305 304 304 305 301 303 305 308 308 307 307 306 304 304 303 304 303 304 304 304 303 303 302 301 300 299 299 297 296 310 307 305 304 303
304 304 304 305 306 306 306 306 306 307 306 306 306 306 304 304 304 306 308 309 307 306 305 303 303 302 303 303 304 304 304 302 301 300 300 302 300 300 297 295 307 305 303 300 299
305 305 305 306 306 305 307 306 306 306 307 307 306 306 303 303 304 308 309 307 307 307 305 304 304 303 302 304 302 303 306 305 300 299 301 300 303 299 295 298 307 303 300 298 297
305 305 305 305 305 305 304 306 307 306 305 307 307 307 302 304 304 309 309 310 307 307 306 306 306 302 302 302 303 305 304 307 304 299 300 303 306 298 296 310 308 303 299 297 295
303 305 306 305 305 306 306 304 304 306 306 306 306 305 303 304 303 303 305 306 309 307 305 305 303 301 301 305 306 304 308 308 307 298 298 300 304 297 296 309 303 300 298 296 293
306 304 305 306 305 305 306 308 305 304 304 304 304 305 301 300 302 301 305 304 304 305 304 301 300 301 299 305 310 309 308 306 307 301 297 298 296 296 296 300 301 299 297 294 292
309 305 304 306 305 305 304 307 300 299 301 300 300 300 301 301 301 301 301 303 303 300 303 299 301 301 301 299 301 304 306 302 298 298 297 297 295 295 295 296 296 296 295 293 291
309 307 304 306 304 305 304 301 301 300 298 298 300 299 300 299 298 300 301 299 298 300 299 298 300 298 298 299 297 298 298 297 296 296 297 296 297 297 294 295 295 295 294 292 290
307 307 304 305 304 304 304 303 304 301 297 298 298 299 299 299 297 298 299 298 297 298 296 298 299 297 297 298 302 299 299 298 298 297 296 293 298 296 294 293 291 291 291 289 289
305 307 304 304 304 303 303 303 303 299 298 298 299 299 298 296 298 298 297 299 299 296 296 297 297 297 298 299 300 300 298 298 298 298 300 293 303 297 294 293 292 291 289 288 287
304 306 303 303 302 301 301 303 305 301 300 298 298 299 297 298 296 298 296 298 298 299 298 300 298 297 298 298 298 298 298 298 297 295 297 296 295 297 293 295 293 291 289 287 286
305 305 303 302 302 301 302 305 301 304 298 296 297 298 299 296 296 295 295 296 297 298 297 299 297 297 296 296 298 296 297 296 294 293 299 289 293 301 298 296 294 291 289 288 286
304 304 304 302 301 303 305 301 305 301 294 298 300 298 298 297 297 295 295 294 297 299 297 296 299 296 294 296 297 296 296 299 303 300 305 280 292 300 297 293 292 292 289 287 286
304 304 304 301 303 305 302 301 299 290 292 297 299 297 298 296 298 295 297 297 294 295 292 294 300 295 294 296 296 297 293 299 296 300 300 281 296 301 293 290 289 289 288 287 285
304 304 305 301 302 303 299 299 296 295 301 301 298 296 295 296 296 296 295 297 296 294 295 293 297 295 294 294 293 296 293 292 287 276 288 294 295 296 292 291 290 289 289 287 285
304 304 304 302 300 299 298 297 295 297 300 300 299 296 292 293 298 295 296 296 297 295 293 293 293 290 295 294 292 294 292 295 292 295 297 296 288 301 295 291 288 290 289 288 287
303 302 303 301 299 295 297 287 291 295 298 299 298 293 298 295 296 295 297 296 296 295 293 290 289 295 294 291 292 292 292 291 292 294 295 294 299 293 291 286 286 285 288 285 284
301 302 303 301 299 278 289 288 297 299 298 299 298 296 296 296 298 291 297 296 295 295 296 295 293 291 294 293 293 295 292 294 296 292 290 292 297 291 284 278 276 285 286 284 277
298 298 302 301 300 288 290 294 298 299 299 298 297 297 294 291 295 296 297 295 295 295 296 294 289 290 297 294 291 292 294 291 288 291 291 294 299 285 278 280 280 281 283 279 278
297 301 297 292 291 296 292 295 297 298 298 297 298 296 296 290 292 292 296 296 296 296 298 294 293 293 297 297 289 291 293 293 292 288 294 296 298 298 298 288 286 283 280 276 276
293 295 293 297 296 296 297 296 297 296 297 297 296 297 295 293 293 289 295 295 296 298 295 293 290 290 290 289 285 292 293 291 293 296 293 297 295 297 297 293 285 277 275 277 276
299 298 290 290 294 297 297 298 297 294 298 299 295 296 294 293 298 299 295 295 296 296 295 292 289 284 288 290 289 291 291 292 292 292 291 294 294 294 293 275 276 279 273 275 274
298 297 298 295 295 297 297 298 298 296 296 296 297 296 296 296 294 294 292 291 292 295 294 289 285 284 290 284 285 294 290 291 288 286 288 291 294 280 284 281 279 278 274 274 272
Wind_Speed
17 18 17 16 15 13 13 12 11 10 8 6 6 7 6 12 27 23 18 16 14 16 8 3 6 6 7 5 7 2 5 3 2 2 1 4 2 4 2 6 4 3 3 4 3
18 18 18 17 15 14 13 12 11 11 9 6 5 5 3 5 8 20 24 18 12 8 5 6 4 6 5 5 5 5 4 2 1 1 1 3 3 2 4 3 4 4 7 8 13
18 17 17 16 15 13 13 13 14 13 12 8 4 4 0 1 6 7 26 17 12 6 7 6 6 4 6 5 6 5 4 4 1 2 2 1 4 3 4 4 3 1 4 6 8
19 18 17 17 17 15 13 13 15 15 15 9 7 12 7 2 5 14 22 14 9 5 4 9 5 5 6 6 4 7 5 2 2 5 1 2 3 5 6 2 7 4 8 7 13
19 19 17 14 13 12 12 11 12 12 16 14 8 6 7 9 3 19 16 15 16 13 11 4 6 5 6 6 4 6 3 5 2 6 5 6 4 6 4 7 2 10 13 10 11
19 20 22 14 13 12 11 11 12 11 11 23 23 15 7 18 11 15 15 19 19 21 17 11 4 6 8 4 5 3 6 3 5 7 5 3 2 3 2 5 5 9 9 10 12
21 19 22 16 14 12 10 10 15 12 7 10 10 5 19 5 11 16 14 21 19 21 9 10 3 6 5 5 4 4 5 3 8 7 2 1 2 2 4 6 8 8 9 8 11
21 22 19 19 13 17 17 5 6 11 13 5 6 13 7 15 13 19 15 12 17 17 14 8 12 10 6 4 6 5 5 3 3 7 1 1 7 5 3 12 11 9 7 7 8
24 22 18 17 16 6 6 21 12 3 6 12 6 8 4 11 14 22 16 9 7 8 17 11 8 6 6 4 4 7 2 2 6 4 5 2 6 3 2 11 5 6 7 6 6
24 23 19 16 21 14 3 5 11 8 6 5 19 5 9 7 11 18 10 12 7 4 6 11 7 5 5 5 3 2 0 3 5 5 5 5 10 4 1 3 4 5 5 5 5
23 24 22 15 21 15 5 2 7 8 19 5 3 4 5 18 4 19 19 5 8 10 6 7 11 4 3 3 2 1 1 3 4 1 4 5 9 9 6 5 6 5 6 6 6
21 21 21 12 14 11 18 11 3 4 7 8 3 3 3 10 7 26 23 7 9 5 6 8 5 4 3 3 3 3 1 4 6 2 3 6 19 13 10 6 8 11 8 7 4
21 20 20 8 11 15 22 10 5 3 6 6 4 5 5 9 5 11 11 3 7 9 9 7 1 3 1 5 2 1 0 2 5 8 1 7 9 3 3 2 4 4 3 3 5
21 20 19 7 2 6 6 6 3 2 6 13 9 7 6 5 6 6 9 3 8 3 3 5 3 1 1 2 1 3 2 2 4 4 3 5 5 6 1 5 6 6 7 5 6
21 17 18 16 3 5 2 2 2 1 6 8 9 8 7 8 5 9 7 6 4 3 3 1 2 3 3 1 2 1 2 1 2 3 2 4 2 7 3 5 8 10 9 9 8
18 14 16 6 10 5 2 2 2 7 1 6 4 8 6 8 7 7 7 10 4 3 5 2 1 1 2 2 1 2 1 4 3 3 3 3 3 5 4 4 3 2 9 11 9
15 10 14 12 4 4 2 3 6 7 4 6 4 6 1 7 7 9 6 8 4 5 5 5 1 2 3 3 1 6 5 4 6 5 5 1 1 11 3 5 3 5 7 10 7
13 6 7 18 6 2 2 6 9 3 5 1 2 2 4 7 5 9 3 4 5 5 3 4 6 4 5 3 2 3 4 4 4 4 5 2 6 5 3 2 4 5 6 6 8
12 3 4 18 6 2 5 7 7 6 1 2 1 5 5 3 1 4 6 2 4 6 4 4 5 2 4 2 2 1 4 3 6 1 3 3 7 10 2 6 5 6 3 7 8
6 1 5 17 4 2 6 4 2 2 2 1 3 2 1 6 5 5 4 2 3 4 2 2 4 1 2 1 4 4 3 4 3 5 7 5 5 6 6 5 4 7 8 9 7
3 3 8 15 4 6 4 4 2 3 1 4 2 2 2 1 2 3 4 3 2 1 3 3 3 4 1 2 5 2 2 5 3 3 4 5 6 7 7 4 4 6 8 7 7
3 3 12 9 5 2 3 4 4 2 1 1 2 2 1 1 0 1 1 5 2 3 1 1 4 3 8 1 2 1 4 4 4 6 3 1 13 1 4 3 3 8 7 6 1
2 2 8 5 4 3 3 1 1 1 2 1 2 2 2 2 4 1 1 3 4 4 5 5 1 4 10 2 3 3 4 4 3 2 7 1 8 1 2 5 7 8 8 4 4
3 3 5 7 1 6 3 1 1 1 1 2 3 2 2 3 2 3 2 3 3 2 4 4 3 8 7 8 3 5 6 4 5 2 5 14 30 26 20 7 6 5 6 5 4
5 1 2 2 4 4 2 3 1 1 2 1 2 3 4 0 1 3 2 3 2 3 2 3 5 3 5 8 5 12 15 9 13 19 8 30 14 27 22 11 5 4 4 4 3
3 3 3 1 2 2 2 3 4 3 3 1 3 3 5 4 3 3 2 2 4 2 3 2 3 2 6 5 6 11 17 16 18 17 14 26 28 22 16 3 3 4 2 2 2
3 4 4 2 1 3 3 4 3 4 1 0 3 3 3 6 3 1 2 3 2 3 5 2 3 3 6 4 9 9 9 8 5 5 6 7 11 0 2 3 3 3 2 2 3
Wind_Direction
18 14 12 15 16 23 29 33 38 33 27 9 8 33 56 65 53 54 44 341 326 335 353 37 62 62 58 64 43 94 65 71 49 95 238 337 79 5 83 87 48 44 62 62 60
22 25 24 22 27 27 36 38 34 28 25 20 27 28 54 59 39 44 3 359 354 355 39 61 34 33 51 34 29 58 77 93 253 219 91 359 76 318 74 50 62 74 57 49 64
26 28 25 23 22 27 31 36 38 27 20 21 15 355 95 71 66 337 1 10 24 58 72 77 75 66 63 32 1 26 110 162 9 316 215 103 62 29 135 42 46 271 101 63 56
29 30 35 39 35 29 33 30 25 28 30 37 82 78 71 94 68 332 1 23 35 71 107 55 41 54 67 54 346 94 43 130 347 356 155 72 95 64 49 310 286 100 89 83 63
30 26 16 13 20 20 19 26 34 34 39 51 87 83 81 57 16 343 15 40 55 81 65 80 56 106 94 107 64 79 142 58 59 37 51 70 60 142 46 345 103 104 76 75 79
25 24 23 27 31 34 37 35 34 47 65 73 71 88 77 73 349 8 32 52 55 66 60 52 93 109 86 58 70 100 86 74 38 10 50 88 53 158 266 329 126 104 97 82 76
21 22 28 35 36 39 39 65 46 41 51 44 53 61 61 56 12 33 44 46 51 64 68 55 101 74 129 92 156 135 76 38 20 338 61 285 230 201 268 229 151 121 114 94 74
20 18 24 39 49 57 47 40 23 43 45 47 45 51 89 12 28 40 37 48 54 61 67 72 81 93 61 127 36 50 52 22 322 352 277 129 255 203 300 181 182 145 118 102 72
19 15 12 14 17 338 44 49 28 351 36 46 40 78 29 349 12 6 10 4 16 58 54 71 66 80 30 69 38 15 144 317 308 56 316 61 267 182 338 201 180 141 136 120 98
17 14 12 8 6 5 319 271 33 77 30 32 26 46 14 313 326 351 1 18 26 351 25 34 47 64 29 41 179 235 27 289 270 341 348 291 268 240 268 191 190 161 153 150 131
13 12 10 11 10 18 43 78 21 4 36 72 303 96 310 331 14 4 356 345 21 50 47 17 64 48 333 334 349 130 182 270 259 38 325 254 273 256 200 186 199 191 187 182 171
10 11 8 10 23 32 59 77 120 143 73 37 39 17 339 344 6 356 10 56 43 52 347 33 58 327 289 10 72 49 2 290 280 16 351 352 292 264 181 202 189 196 201 193 188
7 10 9 22 27 41 67 81 94 114 83 12 25 28 334 10 48 333 19 52 62 49 18 91 301 303 171 30 21 37 182 319 261 331 68 325 285 280 222 170 205 213 205 204 202
8 11 14 18 50 38 52 44 66 80 74 332 348 5 351 342 42 350 13 105 34 137 77 88 321 349 115 96 110 295 78 316 298 19 287 16 282 306 301 257 234 215 212 208 211
8 11 12 40 59 53 16 34 78 70 55 322 322 321 347 75 311 1 9 29 80 90 121 262 6 18 59 343 80 302 338 279 79 104 13 350 67 274 14 285 246 220 210 213 212
4 10 18 25 53 41 45 102 58 44 319 339 320 345 12 14 2 307 21 41 145 95 36 111 134 53 349 313 214 16 65 45 67 104 17 243 104 277 239 213 280 257 209 207 211
358 8 26 36 19 11 106 64 42 91 349 315 333 4 59 348 354 23 29 16 51 59 359 344 78 58 12 335 89 38 42 341 354 4 234 45 4 251 278 232 232 275 238 209 204
353 12 31 21 11 54 126 54 69 250 236 27 300 304 48 359 25 353 37 40 46 41 80 72 333 16 350 76 207 45 119 139 279 287 282 16 240 255 192 280 266 280 273 200 209
348 26 38 0 15 115 75 50 183 193 196 331 293 57 335 0 117 27 23 34 25 27 89 33 294 22 31 6 61 320 41 142 95 95 25 267 289 288 266 277 260 259 225 228 226
342 51 21 359 21 75 71 155 145 233 322 238 94 92 332 312 17 44 5 25 58 46 153 190 335 304 285 63 37 102 162 32 13 336 311 277 271 246 297 283 271 255 251 247 235
7 44 356 356 32 50 97 201 225 238 335 23 114 89 149 316 11 353 343 33 23 42 63 126 92 288 49 194 181 25 14 44 118 143 213 294 251 211 226 227 226 263 262 270 248
38 31 347 359 46 33 80 191 204 160 163 100 79 92 118 153 255 89 225 184 194 171 72 186 132 275 236 81 7 315 203 157 126 261 232 193 279 73 223 236 238 277 286 297 281
53 287 350 357 79 11 311 2 282 151 108 113 117 65 100 143 17 315 294 183 174 168 170 169 310 349 335 42 12 205 209 160 122 83 204 169 267 288 297 285 245 257 283 296 286
61 20 341 49 28 116 126 329 91 322 102 111 117 112 142 18 12 244 257 173 173 153 142 154 178 182 213 222 160 246 213 195 141 180 250 231 276 279 281 266 276 265 267 292 270
29 276 205 324 353 73 89 127 87 284 351 67 32 218 162 75 316 261 261 297 109 160 76 126 217 224 258 252 211 256 257 198 204 235 215 273 261 276 290 289 276 276 298 344 350
100 114 11 74 307 105 33 194 179 278 163 231 157 177 172 178 221 276 190 243 250 19 156 11 260 105 281 292 254 266 250 238 234 253 257 261 276 275 285 338 298 272 280 319 313
124 120 114 317 357 79 221 169 199 163 192 91 190 126 211 242 232 257 266 45 29 169 173 152 131 37 267 334 312 296 228 182 190 221 166 212 247 84 306 320 257 281 172 241 258